Location: Baix
(44.7118°N, 4.7648°E)
Time: 01:59:09
(UTC+00:00)

Cosmos 1953 Rocket - Pass Details

Date: 07 August 2020
Orbit: 603 x 636 km, 82.5° (Epoch: 27 September)

Event Time Altitude Azimuth Distance (km) Brightness Sun altitude
Rises 03:54:58 0° 352° (N) 2,946 7.4 -7.0°
Reaches altitude 10° 03:57:13 10° 353° (N) 2,033 6.5 -6.7°
Maximum altitude 04:01:44 84° 81° (E) 645 3.7 -6.0°
Drops below altitude 10° 04:06:13 10° 170° (S) 2,009 6.0 -5.3°
Sets 04:08:26 0° 171° (S) 2,909 6.8 -4.9°
